When you browse on this site, cookies collect data to enhance your experience and personalize the content and advertising you see.
Visit our Privacy Policy to learn more. By continuing to use the site, you agree to this use of cookies and data.
  • In Spain
  • List of Countries
  • For 7 days
  • Water Temperature
  • Weather Map
  • Weather Widgets
  • user-avatar
    Login

    Hourly Weather Brest

    Today, 3 June, Wednesday

    Time Temperature Precipitation Wind Pressure Humidity
    00:00 +8°C° 0 mm 4 mps 742 mmHg 93%
    01:00 +8°C° 0 mm 4 mps 742 mmHg 94%
    02:00 +7°C° 0 mm 4 mps 742 mmHg 94%
    03:00 +7°C° 0 mm 4 mps 741 mmHg 94%
    04:00 +7°C° 0 mm 4 mps 741 mmHg 94%
    05:00 +7°C° 0 mm 4 mps 741 mmHg 94%
    06:00 +8°C° 0 mm 4 mps 741 mmHg 92%
    07:00 +8°C° 0 mm 4 mps 741 mmHg 89%
    08:00 +10°C° 0 mm 4 mps 741 mmHg 87%
    09:00 +10°C° 0.3 mm 4 mps 741 mmHg 84%
    10:00 +11°C° 0.3 mm 3 mps 741 mmHg 81%
    11:00 +12°C° 0.3 mm 3 mps 741 mmHg 79%
    12:00 +13°C° 0.8 mm 3 mps 741 mmHg 77%
    13:00 +13°C° 0.8 mm 3 mps 740 mmHg 75%
    14:00 +14°C° 0.8 mm 3 mps 740 mmHg 72%
    15:00 +14°C° 0.8 mm 3 mps 740 mmHg 73%
    16:00 +14°C° 0.8 mm 3 mps 740 mmHg 74%
    17:00 +14°C° 0.8 mm 3 mps 739 mmHg 75%
    18:00 +13°C° 0.4 mm 3 mps 739 mmHg 80%
    19:00 +13°C° 0.4 mm 2 mps 739 mmHg 84%
    20:00 +12°C° 0.4 mm 2 mps 739 mmHg 89%
    21:00 +10°C° 0 mm 2 mps 739 mmHg 91%
    22:00 +9°C° 0 mm 2 mps 739 mmHg 92%
    23:00 +9°C° 0 mm 2 mps 739 mmHg 94%

    Tomorrow, 4 June, Thursday

    Time Temperature Precipitation Wind Pressure Humidity
    00:00 +9°C° 0.3 mm 2 mps 739 mmHg 95%
    01:00 +8°C° 0.3 mm 2 mps 738 mmHg 95%
    02:00 +8°C° 0.3 mm 2 mps 738 mmHg 96%
    03:00 +8°C° 0 mm 2 mps 738 mmHg 96%
    04:00 +7°C° 0 mm 2 mps 738 mmHg 97%
    05:00 +7°C° 0 mm 2 mps 738 mmHg 97%
    06:00 +8°C° 0 mm 2 mps 738 mmHg 93%
    07:00 +10°C° 0 mm 2 mps 738 mmHg 89%
    08:00 +12°C° 0 mm 2 mps 738 mmHg 85%
    09:00 +14°C° 0 mm 2 mps 738 mmHg 77%
    10:00 +15°C° 0 mm 2 mps 738 mmHg 69%
    11:00 +16°C° 0 mm 2 mps 738 mmHg 62%
    12:00 +17°C° 0 mm 3 mps 738 mmHg 59%
    13:00 +18°C° 0 mm 3 mps 738 mmHg 57%
    14:00 +19°C° 0 mm 3 mps 738 mmHg 55%
    15:00 +19°C° 0 mm 3 mps 737 mmHg 55%
    16:00 +19°C° 0 mm 2 mps 737 mmHg 56%
    17:00 +19°C° 0 mm 2 mps 737 mmHg 56%
    18:00 +18°C° 0 mm 2 mps 737 mmHg 62%
    19:00 +16°C° 0 mm 1 mps 737 mmHg 68%
    20:00 +15°C° 0 mm 1 mps 736 mmHg 73%
    21:00 +15°C° 0 mm 1 mps 737 mmHg 75%
    22:00 +14°C° 0 mm 2 mps 737 mmHg 76%
    23:00 +13°C° 0 mm 2 mps 737 mmHg 78%

    Day after tomorrow, 5 June, Friday

    Time Temperature Precipitation Wind Pressure Humidity
    00:00 +13°C° 0 mm 2 mps 736 mmHg 80%
    01:00 +12°C° 0 mm 3 mps 736 mmHg 83%
    02:00 +12°C° 0 mm 3 mps 736 mmHg 86%
    03:00 +12°C° 0 mm 3 mps 736 mmHg 87%
    04:00 +12°C° 0 mm 3 mps 735 mmHg 89%
    05:00 +12°C° 0 mm 3 mps 735 mmHg 91%
    06:00 +13°C° 0 mm 4 mps 735 mmHg 89%
    07:00 +15°C° 0 mm 5 mps 735 mmHg 86%
    08:00 +16°C° 0 mm 5 mps 735 mmHg 84%
    09:00 +17°C° 0.2 mm 5 mps 734 mmHg 83%
    10:00 +19°C° 0.2 mm 6 mps 734 mmHg 82%
    11:00 +19°C° 0.2 mm 6 mps 734 mmHg 81%
    12:00 +20°C° 0.4 mm 6 mps 734 mmHg 78%
    13:00 +21°C° 0.4 mm 7 mps 735 mmHg 76%
    14:00 +22°C° 0.4 mm 8 mps 735 mmHg 73%
    15:00 +22°C° 0.5 mm 7 mps 735 mmHg 74%
    16:00 +22°C° 0.5 mm 7 mps 735 mmHg 75%
    17:00 +21°C° 0.5 mm 6 mps 736 mmHg 76%
    18:00 +20°C° 0.2 mm 5 mps 736 mmHg 79%
    19:00 +19°C° 0.2 mm 4 mps 736 mmHg 83%
    20:00 +18°C° 0.2 mm 2 mps 737 mmHg 87%
    21:00 +17°C° 0.6 mm 2 mps 737 mmHg 90%
    22:00 +17°C° 0.6 mm 2 mps 737 mmHg 93%
    23:00 +16°C° 0.6 mm 3 mps 738 mmHg 95%

    6 June, Saturday

    Time Temperature Precipitation Wind Pressure Humidity
    00:00 +16°C° 1.4 mm 3 mps 738 mmHg 96%
    01:00 +15°C° 1.4 mm 4 mps 738 mmHg 96%
    02:00 +15°C° 1.4 mm 5 mps 738 mmHg 96%
    03:00 +14°C° 0.1 mm 4 mps 738 mmHg 96%
    04:00 +13°C° 0.1 mm 4 mps 739 mmHg 96%
    05:00 +12°C° 0.1 mm 3 mps 740 mmHg 96%
    06:00 +13°C° 0 mm 4 mps 740 mmHg 91%
    07:00 +14°C° 0 mm 4 mps 741 mmHg 87%
    08:00 +15°C° 0 mm 5 mps 742 mmHg 82%
    09:00 +16°C° 0 mm 5 mps 742 mmHg 77%
    10:00 +19°C° 0 mm 6 mps 743 mmHg 72%
    11:00 +20°C° 0 mm 6 mps 743 mmHg 66%
    12:00 +20°C° 0 mm 6 mps 744 mmHg 65%
    13:00 +21°C° 0 mm 6 mps 744 mmHg 63%
    14:00 +22°C° 0 mm 6 mps 744 mmHg 61%
    15:00 +22°C° 0 mm 5 mps 745 mmHg 62%
    16:00 +22°C° 0 mm 5 mps 745 mmHg 62%
    17:00 +22°C° 0 mm 5 mps 745 mmHg 63%
    18:00 +21°C° 0 mm 4 mps 745 mmHg 68%
    19:00 +20°C° 0 mm 3 mps 745 mmHg 74%
    20:00 +18°C° 0 mm 3 mps 745 mmHg 80%
    21:00 +18°C° 0 mm 3 mps 746 mmHg 80%
    22:00 +17°C° 0 mm 3 mps 746 mmHg 81%
    23:00 +16°C° 0 mm 3 mps 747 mmHg 81%

    7 June, Sunday

    Time Temperature Precipitation Wind Pressure Humidity
    00:00 +16°C° 0 mm 3 mps 746 mmHg 82%
    01:00 +14°C° 0 mm 3 mps 746 mmHg 83%
    02:00 +14°C° 0 mm 3 mps 746 mmHg 84%
    03:00 +14°C° 0 mm 3 mps 746 mmHg 83%
    04:00 +15°C° 0 mm 4 mps 746 mmHg 81%
    05:00 +15°C° 0 mm 4 mps 746 mmHg 80%
    06:00 +17°C° 0.2 mm 4 mps 746 mmHg 83%
    07:00 +16°C° 0.2 mm 5 mps 746 mmHg 85%
    08:00 +17°C° 0.2 mm 5 mps 746 mmHg 88%
    09:00 +19°C° 0.3 mm 5 mps 746 mmHg 88%
    10:00 +19°C° 0.3 mm 4 mps 746 mmHg 89%
    11:00 +20°C° 0.3 mm 4 mps 746 mmHg 89%
    12:00 +22°C° 0.3 mm 4 mps 745 mmHg 83%
    13:00 +23°C° 0.3 mm 5 mps 745 mmHg 76%
    14:00 +26°C° 0.3 mm 5 mps 745 mmHg 69%
    15:00 +26°C° 1 mm 4 mps 744 mmHg 72%
    16:00 +25°C° 1 mm 4 mps 744 mmHg 74%
    17:00 +25°C° 1 mm 4 mps 744 mmHg 77%
    18:00 +24°C° 1.3 mm 3 mps 744 mmHg 80%
    19:00 +22°C° 1.3 mm 3 mps 744 mmHg 84%
    20:00 +20°C° 1.3 mm 2 mps 744 mmHg 88%
    21:00 +19°C° 0.4 mm 2 mps 745 mmHg 89%
    22:00 +19°C° 0.4 mm 2 mps 745 mmHg 90%
    23:00 +18°C° 0.4 mm 2 mps 745 mmHg 92%

    8 June, Monday

    Time Temperature Precipitation Wind Pressure Humidity
    00:00 +18°C° 0 mm 3 mps 745 mmHg 92%
    01:00 +17°C° 0 mm 3 mps 745 mmHg 93%
    02:00 +17°C° 0 mm 3 mps 745 mmHg 94%
    03:00 +17°C° 0.1 mm 3 mps 745 mmHg 94%
    04:00 +17°C° 0.1 mm 3 mps 745 mmHg 94%
    05:00 +17°C° 0.1 mm 3 mps 745 mmHg 94%
    06:00 +18°C° 0 mm 4 mps 745 mmHg 91%
    07:00 +19°C° 0 mm 4 mps 745 mmHg 88%
    08:00 +21°C° 0 mm 4 mps 745 mmHg 85%
    09:00 +22°C° 0 mm 4 mps 745 mmHg 78%
    10:00 +25°C° 0 mm 5 mps 745 mmHg 71%
    11:00 +26°C° 0 mm 5 mps 745 mmHg 64%
    12:00 +26°C° 0.5 mm 5 mps 745 mmHg 67%
    13:00 +26°C° 0.5 mm 5 mps 745 mmHg 69%
    14:00 +26°C° 0.5 mm 5 mps 745 mmHg 71%
    15:00 +26°C° 0.6 mm 5 mps 745 mmHg 72%
    16:00 +26°C° 0.6 mm 5 mps 745 mmHg 73%
    17:00 +26°C° 0.6 mm 4 mps 744 mmHg 74%
    18:00 +23°C° 0.4 mm 4 mps 744 mmHg 78%
    19:00 +22°C° 0.4 mm 3 mps 744 mmHg 82%
    20:00 +21°C° 0.4 mm 2 mps 744 mmHg 86%
    21:00 +21°C° 0.3 mm 2 mps 745 mmHg 89%
    22:00 +20°C° 0.3 mm 2 mps 745 mmHg 92%
    23:00 +19°C° 0.3 mm 2 mps 745 mmHg 94%
    Show more